Location: Dürabuch
(48.2640°N, 11.2185°E)
Time: 20:58:49
(UTC+00:00)

Meteor 1-24 Rocket - Pass Details

Date: 23 May 2024
Orbit: 788 x 927 km, 81.3° (Epoch: 23 June)

Event Time Altitude Azimuth Distance (km) Brightness Sun altitude
Exits shadow 02:02:48 10° 192° (SSW) 2,613 5.7 -11.2°
Maximum altitude 02:08:49 85° 281° (WNW) 936 3.9 -10.6°
Drops below altitude 10° 02:14:51 10° 11° (N) 2,618 7.2 -9.9°
Sets 02:17:19 0° 12° (NNE) 3,551 8.0 -9.6°
